Regional Weather Roundup
Issued by NWS Sioux Falls, SD

Home | Current Version | Previous Version | Text Only | Print | Product List | Glossary On
Versions: 1 2 3 4 5 6 7 8 9 10 11 12 13 14 15 16 17 18 19 20 21 22 23 24 25 26 27 28 29 30 31 32 33 34 35 36 37 38 39 40 41 42 43 44 45 46 47 48 49 50
000
ASUS43 KFSD 121410
RWRFSD

WEATHER ROUNDUP FOR SE SOUTH DAKOTA/SW MINNESOTA/NW IOWA
NATIONAL WEATHER SERVICE SIOUX FALLS SD
800 AM CST FRI FEB 12 2016

NOTE: "FAIR" INDICATES FEW OR NO CLOUDS BELOW 12,000 FEET WITH NO
SIGNIFICANT WEATHER AND OR OBSTRUCTIONS TO VISIBILITY.


SDZ038>040-050-052>070-121500-
SOUTHEAST SOUTH DAKOTA

CITY           SKY/WX    TMP DP  RH WIND       PRES   REMARKS
BROOKINGS      FLURRIES   9   4  80 N13       30.41R WCI  -7
CHAMBERLAIN    CLOUDY    20  16  83 N12       30.45R WCI   8
HURON          CLOUDY    12   7  80 N13       30.49R WCI  -3
MADISON        FLURRIES   9   9 100 N14       30.40R WCI  -8
MITCHELL       CLOUDY    16  10  77 N13       30.48R WCI   2
SIOUX FALLS    CLOUDY    11   6  81 N10       30.42R WCI  -3
WINNER         CLOUDY    23  17  78 N9        30.43R WCI  13
YANKTON        CLOUDY    18  10  73 N14       30.44R WCI   4
$$

MNZ071-072-080-081-089-090-097-098-121500-
SOUTHWEST MINNESOTA

CITY           SKY/WX    TMP DP  RH WIND       PRES   REMARKS
FAIRMONT       CLEAR     10   3  72 NW18G24   30.34R WCI  -8
JACKSON        CLOUDY    10   5  79 NW23      30.36R HAZE    WCI -10
LUVERNE        CLEAR     12   7  79 N9        30.42R WCI   0
MARSHALL       CLOUDY     8   0  69 N20       30.43R WCI -11
MONTEVIDEO     PTCLDY     5   0  78 N15G21    30.46R WCI -13
PIPESTONE      FLURRIES  10   1  67 N8        30.39R WCI  -1
REDWOOD FALLS  CLEAR      7   0  73 NW13G24   30.41R WCI  -9
TRACY          CLOUDY    10   3  76 N18G29    30.41R HAZE    WCI  -9
WINDOM         MOCLDY     9   3  78 NW23      30.37R FOG     WCI -12
WORTHINGTON    CLOUDY     9   1  72 N17       30.39R WCI -10
$$

IAZ001>003-012>014-020>022-031-032-NEZ013-014-SDZ071-121500-
NORTHWEST IOWA

CITY           SKY/WX    TMP DP  RH WIND       PRES   REMARKS
CHEROKEE       CLOUDY    14  10  83 N9        30.40R WCI   2
DENISON        CLOUDY    18  14  86 N16       30.36R WCI   3
ESTHERVILLE    MOCLDY     9   5  84 NW20      30.36R WCI -10
LE MARS        CLOUDY    18  14  86 N12G18    30.42R WCI   5
ORANGE CITY    CLOUDY    14  12  92 N8        30.39R WCI   3
SHELDON        CLOUDY    10   7  85 N13       30.39R WCI  -5
SIOUX CITY     CLOUDY    22  15  75 N16       30.42R WCI   8
SPENCER        CLOUDY    11   5  77 N17       30.39R WCI  -6
STORM LAKE     CLOUDY    14  10  85 N17       30.37R WCI  -3
$$

ABBREVIATIONS USED IN REMARKS
   TC - TEMPERATURE IN CELSIUS
  WCI - WIND CHILL INDEX
   HX - HEAT INDEX
  VSB - VISIBILITY




USA.gov is the U.S. government's official web portal to all federal, state and local government web resources and services.